Weather History for KOTM - February, 2013

Change the Weather History Date:

Tuesday, February 19, 2013

  Actual Average Record
Temperature  
Mean Temperature 18 °F 28 °F  
Max Temperature 26 °F 38 °F 72 °F (1930)
Min Temperature 10 °F 19 °F -23 °F (1936)
Degree Days  
Heating Degree Days 47 37  
Month to date heating degree days 683 749  
Since 1 July heating degree days 4175 4571  
Cooling Degree Days 0 0  
Month to date cooling degree days 0 0  
Year to date cooling degree days 0 0  
Moisture  
Dew Point 5 °F    
Average Humidity 54    
Maximum Humidity 67    
Minimum Humidity 40    
Precipitation  
Precipitation T in 0.05 in 0.63 in (1994)
Month to date precipitation 0.82 0.73  
Year to date precipitation 2.34 1.63  
Sea Level Pressure  
Sea Level Pressure 30.12 in    
Wind  
Wind Speed 21 mph (WNW)    
Max Wind Speed 31 mph    
Max Gust Speed 41 mph    
Visibility 10 miles    
Events      
T = Trace of Precipitation, MM = Missing Value Source: NWS Daily Summary

Daily Weather History Graph

Daily Weather History Graph

Search for Another Location

Airport or City:

Trip Planner

Search our weather history database for the weather conditions in past years. The results will help you decide how hot, cold, wet, or windy it might be!

Date:

Astronomy

Feb. 19, 2013 Rise Set
Actual Time 6:58 AM CST 5:49 PM CST
Civil Twilight 6:30 AM CST 6:17 PM CST
Nautical Twilight 5:58 AM CST 6:49 PM CST
Astronomical Twilight 5:26 AM CST 7:21 PM CST
Moon 12:19 PM CST (2/19) 2:32 AM CST (2/19)
Length of Visible Light 11h 46m
Length of Day
10h 50m
Waxing Gibbous, 67% of the Moon is Illuminated
Feb 19
Waxing Gibbous
Feb 25
Full
Mar 4
Last Quarter
Mar 11
New
Mar 19
First Quarter

Hourly Weather History & Observations

Time (CST) Temp. Windchill Dew Point Humidity Pressure Visibility Wind Dir Wind Speed Gust Speed Precip Events Conditions
12:50 AM 17.6 °F -0.3 °F 8.6 °F 68% 29.90 in 10.0 mi WNW 24.2 mph 34.5 mph N/A   Scattered Clouds
12:53 AM 18.0 °F 2.6 °F 8.1 °F 65% 29.93 in 10.0 mi WNW 17.3 mph 32.2 mph N/A   Scattered Clouds
1:02 AM 17.6 °F 2.2 °F 8.6 °F 68% 29.91 in 10.0 mi WNW 17.3 mph 27.6 mph N/A   Mostly Cloudy
1:53 AM 18.0 °F 0.2 °F 8.1 °F 65% 29.95 in 10.0 mi WNW 24.2 mph 32.2 mph N/A   Overcast
2:53 AM 17.1 °F -0.6 °F 8.1 °F 68% 29.97 in 10.0 mi WNW 23.0 mph 29.9 mph N/A   Overcast
3:53 AM 15.1 °F -4.0 °F 7.0 °F 70% 29.99 in 10.0 mi WNW 25.3 mph 34.5 mph 0.00 in   Overcast
4:53 AM 14.0 °F -5.8 °F 5.0 °F 67% 30.02 in 10.0 mi WNW 26.5 mph 35.7 mph N/A   Overcast
5:45 AM 10.4 °F -10.7 °F 1.4 °F 67% 30.01 in 10.0 mi NW 26.5 mph 35.7 mph 0.00 in   Scattered Clouds
5:53 AM 10.4 °F -9.1 °F 1.4 °F 67% 30.02 in 10.0 mi NW 21.9 mph 35.7 mph N/A   Partly Cloudy
6:38 AM 10.4 °F -8.6 °F 3.2 °F 73% 30.03 in 10.0 mi NW 20.7 mph 32.2 mph N/A   Mostly Cloudy
6:45 AM 12.2 °F -7.5 °F 3.2 °F 67% 30.03 in 10.0 mi NW 24.2 mph 32.2 mph N/A   Scattered Clouds
6:53 AM 12.0 °F -6.5 °F 3.0 °F 67% 30.08 in 10.0 mi WNW 20.7 mph 32.2 mph N/A   Scattered Clouds
7:11 AM 12.2 °F -6.7 °F 3.2 °F 67% 30.04 in 10.0 mi WNW 21.9 mph 36.8 mph N/A   Mostly Cloudy
7:53 AM 12.9 °F -6.1 °F 3.0 °F 65% 30.11 in 10.0 mi NW 23.0 mph 36.8 mph N/A   Scattered Clouds
8:21 AM 15.8 °F -1.5 °F 5.0 °F 62% 30.08 in 10.0 mi WNW 20.7 mph 27.6 mph N/A   Mostly Cloudy
8:53 AM 16.0 °F -3.2 °F 6.1 °F 65% 30.14 in 9.0 mi WNW 26.5 mph 36.8 mph 0.00 in   Overcast
9:53 AM 17.1 °F -1.0 °F 6.1 °F 62% 30.15 in 10.0 mi WNW 24.2 mph 35.7 mph 0.00 in   Overcast
10:19 AM 17.6 °F 0.9 °F 6.8 °F 63% 30.12 in 10.0 mi WNW 20.7 mph 35.7 mph N/A   Mostly Cloudy
10:53 AM 19.0 °F 2.0 °F 5.0 °F 54% 30.18 in 10.0 mi West 23.0 mph 33.4 mph N/A   Mostly Cloudy
12:53 PM 23.0 °F 8.0 °F 6.1 °F 48% 30.19 in 10.0 mi NW 20.7 mph 31.1 mph N/A   Mostly Cloudy
1:53 PM 24.1 °F 8.0 °F 6.1 °F 46% 30.19 in 10.0 mi WNW 25.3 mph 32.2 mph N/A   Partly Cloudy
2:53 PM 24.8 °F 10.0 °F 5.0 °F 43% 30.16 in 10.0 mi NW 21.9 mph 31.1 mph N/A   Clear
3:53 PM 25.0 °F 10.6 °F 3.9 °F 41% 30.23 in 10.0 mi NW 20.7 mph 36.8 mph N/A   Clear
4:53 PM 21.9 °F 5.8 °F 3.9 °F 46% 30.25 in 10.0 mi WNW 23.0 mph 29.9 mph N/A   Clear
6:53 PM 18.0 °F 2.6 °F 3.9 °F 54% 30.28 in 10.0 mi NW 17.3 mph 24.2 mph N/A   Clear
7:53 PM 18.0 °F 3.6 °F 3.9 °F 54% 30.28 in 10.0 mi WNW 15.0 mph - N/A   Clear
8:53 PM 16.0 °F 1.1 °F 3.0 °F 57% 30.30 in 10.0 mi WNW 15.0 mph - N/A   Clear
9:53 PM 14.0 °F -1.4 °F 3.9 °F 64% 30.31 in 10.0 mi NW 15.0 mph - N/A   Clear
10:53 PM 12.0 °F -4.0 °F 3.0 °F 67% 30.35 in 10.0 mi NW 15.0 mph - N/A   Clear
11:53 PM 10.0 °F -7.1 °F 1.0 °F 67% 30.38 in 10.0 mi NNW 16.1 mph - N/A   Clear